Terug naar catalogus

JCSAT 2B

ActiefCommunicatieGEO
NORAD 41471·PAYLOAD·🇯🇵 Japan

Gelanceerd May 6, 2016 vanaf Cape Canaveral Space Force Station

Loading…

TLE

VersSource: Space-Track

Epoch: Sep 14, 2026, 14:19 UTC

1 41471U 16028A   26257.59719662  .00000000  00000-0  00000-0 0  9991
2 41471   0.0218 153.7969 0000619 357.8220 210.9473  1.00268833 38023

Volg JCSAT 2B in realtime met AllMySat

Download on the App Store